GFSGBSN_250_rhum_117.txt.gz
RH
26 31 34 39 28 23 17 13 11 17 72 100 100 74 57 67 70 70 84 79 80 76 64 73 69 66 86 93 79 73 56 43 29 15 7 8 11 11 8 6 4 4 2 2 1 1 1
40 34 31 29 30 19 20 16 10 11 12 16 41 100 94 82 69 81 70 96 96 67 71 91 81 93 100 93 93 79 50 35 25 12 9 9 14 9 7 4 4 3 2 2 1 1 1
54 37 32 30 24 24 16 16 12 11 10 10 10 23 100 100 89 98 76 77 95 93 78 97 100 100 100 86 91 64 49 34 23 10 9 11 11 7 5 4 3 2 2 2 1 1 1
47 40 34 26 21 15 14 12 12 11 10 10 10 9 13 38 79 100 100 78 93 91 84 79 100 100 99 87 92 54 41 26 12 11 11 13 9 5 4 3 2 2 2 1 1 1 1
49 35 32 15 15 12 10 10 10 10 8 7 9 10 8 9 36 71 100 100 98 89 95 99 100 100 98 100 76 48 31 19 10 9 13 11 7 4 3 3 2 2 2 1 1 1 1
38 30 16 11 9 7 8 7 8 8 8 7 7 9 9 10 9 28 100 100 100 100 100 99 100 95 100 99 64 41 24 13 10 14 12 9 5 4 3 2 2 1 2 2 1 1 1
23 12 5 3 3 3 3 4 5 6 7 7 7 8 11 10 9 11 45 100 100 100 98 100 100 100 99 77 53 29 16 10 15 14 11 6 4 3 2 2 2 2 2 2 1 1 2
9 4 3 2 2 2 2 2 3 4 6 7 8 8 11 12 10 11 18 49 100 100 100 100 100 100 82 63 40 23 14 16 21 10 6 5 3 2 2 1 1 2 2 2 1 1 2
4 4 3 2 2 2 2 2 2 3 5 6 8 9 11 13 12 13 18 100 100 100 100 100 100 99 68 47 28 16 16 21 13 7 5 3 2 2 1 1 1 2 2 2 2 2 2
4 3 2 2 1 1 1 1 2 2 4 6 7 9 12 14 16 18 19 94 100 100 100 100 100 92 66 37 22 22 22 16 9 5 3 2 2 2 1 1 2 2 2 2 2 2 2
3 3 2 1 1 1 1 1 1 2 5 5 6 8 13 18 20 20 92 100 100 100 100 100 100 81 48 30 25 26 15 10 6 3 2 2 2 2 2 2 2 2 2 2 2 2 2
3 2 1 1 1 1 1 1 2 3 4 5 8 14 18 26 48 100 100 100 100 100 100 100 88 63 39 26 31 17 11 5 3 2 2 2 2 2 2 2 2 2 2 2 2 2 2
2 2 2 1 1 1 1 2 2 3 4 7 13 19 22 28 100 100 100 100 100 100 100 96 79 52 33 32 17 9 6 3 2 2 2 2 2 2 2 2 2 3 3 2 2 3 3
2 2 2 2 2 2 2 2 4 5 8 13 20 26 44 97 100 100 100 100 100 100 100 81 66 41 34 16 9 6 4 2 2 2 2 2 2 2 2 2 2 3 3 3 3 4 4
3 3 3 3 3 3 4 5 7 11 15 19 34 75 100 100 100 100 100 100 100 97 100 78 57 39 18 14 9 5 3 2 2 2 2 2 2 2 2 3 3 4 4 4 5 4 4
5 4 5 5 6 7 7 8 14 16 19 42 73 100 100 100 100 100 100 100 100 100 78 62 39 21 14 13 8 5 3 2 2 2 2 2 1 2 2 3 4 4 5 4 4 4 6
8 7 7 7 7 10 13 15 18 30 67 97 100 100 99 100 100 100 100 100 100 81 52 36 25 18 16 14 12 7 3 3 3 2 2 2 2 2 3 4 4 4 4 4 4 7 11
12 10 9 11 12 16 19 24 51 99 93 100 100 100 100 100 100 100 100 100 85 48 37 31 28 20 16 12 16 10 4 3 3 3 2 2 2 2 3 5 5 4 4 4 6 11 10
12 13 20 38 50 54 47 54 85 99 100 100 100 100 100 100 100 100 100 86 54 40 38 38 31 25 18 14 15 14 8 5 4 4 3 2 2 2 4 5 5 6 6 5 7 10 8
16 12 14 35 33 36 49 55 83 100 100 100 100 100 100 100 100 100 95 61 42 41 44 39 34 30 26 22 17 17 16 9 6 5 4 3 3 3 3 4 6 8 8 8 7 10 14
26 17 14 13 31 54 74 88 96 100 100 100 100 100 100 100 100 100 73 50 42 45 45 42 36 36 37 34 25 19 18 20 14 9 6 5 4 4 4 4 6 9 12 11 10 10 14
56 34 16 15 43 70 91 100 100 100 100 100 100 100 100 100 100 93 62 49 45 47 51 44 39 40 46 52 46 30 19 21 24 19 12 7 6 5 5 6 6 7 10 12 14 12 14
84 78 30 19 25 75 93 99 100 100 100 100 100 100 100 100 100 84 58 51 50 50 50 51 42 45 46 59 54 45 30 25 26 22 19 15 12 9 8 7 8 8 9 10 9 11 15
76 95 50 41 35 73 87 100 100 100 99 100 100 100 100 100 100 79 60 54 53 53 54 55 49 46 48 55 59 60 47 36 37 33 30 26 23 19 18 12 10 10 12 13 14 14 12
28 81 97 59 36 69 95 100 100 100 100 100 100 100 100 100 100 82 62 55 54 56 54 59 55 53 56 55 55 60 64 60 52 47 42 35 30 31 30 26 24 16 13 13 14 19 19
35 29 100 89 44 45 90 100 100 100 100 100 100 100 100 100 100 92 66 57 56 57 54 58 57 55 57 60 58 57 64 64 58 63 52 47 41 41 37 44 32 29 31 33 22 18 16
29 24 60 100 71 44 78 98 100 100 100 100 100 100 100 100 100 95 73 60 60 58 54 56 57 57 57 58 59 63 53 59 68 63 66 65 64 54 48 43 44 40 39 34 40 38 41
52 26 26 92 96 69 58 86 100 100 100 100 100 100 100 100 100 100 81 69 61 60 56 54 56 58 53 55 61 57 62 67 68 55 69 70 71 68 68 63 59 49 47 44 38 34 36
35 28 23 43 100 80 61 81 96 100 100 100 100 100 100 100 100 100 94 80 69 62 60 56 55 58 56 55 57 56 59 58 61 63 68 72 70 63 63 71 72 64 67 52 50 51 45

GFSGBSN_250_rhum_120.txt.gz
RH
80 77 62 45 54 54 42 28 22 26 34 29 16 12 10 9 26 58 79 64 59 58 48 67 70 67 86 86 81 96 85 76 63 47 39 21 13 13 11 13 12 10 9 7 5 4 4
73 72 72 72 57 31 32 29 25 24 30 31 19 12 10 11 10 12 39 39 48 60 58 43 62 66 69 86 80 94 91 68 49 42 29 16 11 10 10 14 11 9 6 5 4 3 2
76 83 90 74 81 60 38 28 20 19 20 24 20 14 11 10 10 9 9 12 41 89 80 42 47 66 68 85 100 84 86 67 50 35 20 19 14 11 11 12 8 6 5 4 3 2 2
68 69 76 70 56 62 28 13 9 10 11 16 16 12 10 8 9 10 10 10 18 94 100 80 56 54 65 96 98 94 76 56 37 26 20 14 12 14 12 7 6 5 4 3 2 2 1
79 59 38 20 10 6 5 5 4 5 7 8 8 10 8 8 9 10 11 10 10 39 96 100 90 90 94 88 91 85 58 43 33 26 18 12 13 12 8 6 5 4 2 2 2 1 1
15 8 6 5 4 4 4 3 3 3 4 5 6 6 8 7 8 10 12 11 11 16 43 80 100 100 100 96 97 72 48 30 22 14 12 14 12 8 6 5 4 2 2 2 1 1 1
7 6 4 3 3 3 3 3 3 2 2 3 4 5 6 7 8 10 10 15 14 16 18 41 81 96 100 100 80 49 33 22 14 12 15 12 7 5 5 4 3 2 2 2 1 1 1
4 3 3 2 2 2 2 2 2 2 2 2 4 5 6 8 10 11 15 19 19 24 44 72 94 99 100 86 66 43 21 11 13 16 11 6 5 6 4 3 2 1 1 1 1 1 2
3 2 2 2 2 2 1 1 1 1 2 2 3 6 7 10 12 14 24 23 50 93 100 98 100 100 88 74 52 20 10 15 15 9 6 5 5 3 3 2 1 1 1 1 1 1 1
3 2 2 2 1 1 1 1 1 1 2 2 5 6 9 12 17 28 37 64 100 100 100 100 100 81 54 34 23 14 19 14 9 7 6 4 3 2 2 1 1 1 1 1 1 1 1
3 2 2 1 1 1 1 1 1 1 2 2 4 7 11 18 29 38 85 100 100 100 100 100 98 57 38 27 22 22 14 8 7 6 5 3 2 1 1 1 1 1 2 2 2 2 2
3 3 2 2 1 1 1 1 2 1 2 4 6 11 22 32 43 100 100 100 100 100 100 100 55 40 35 38 24 12 9 7 5 4 2 2 2 2 2 2 2 2 2 2 2 2 2
4 3 2 2 2 2 2 2 2 3 5 7 10 18 28 80 100 100 100 100 100 100 94 62 51 38 42 34 17 11 8 5 3 2 2 2 2 2 2 2 2 2 2 2 2 2 2
7 4 4 3 3 3 4 5 6 7 8 12 17 42 100 100 100 100 100 100 100 75 78 62 56 45 31 16 9 6 4 2 2 2 2 2 2 2 2 2 2 2 2 3 3 3 3
10 6 5 5 6 8 8 10 12 12 17 44 100 100 100 100 100 100 99 97 92 89 88 84 40 24 16 10 7 5 2 2 2 2 2 2 2 2 2 2 2 3 3 3 3 3 3
14 10 9 9 14 21 23 23 28 43 79 100 87 95 100 100 100 94 99 99 96 99 66 38 21 17 13 9 6 4 2 2 2 2 2 2 2 2 2 2 2 3 3 4 4 4 4
38 14 17 29 30 50 60 98 100 100 76 71 93 100 100 100 100 100 100 100 86 52 33 24 17 17 13 10 8 4 3 2 2 2 2 2 2 3 3 4 3 3 4 5 6 5 6
99 51 14 32 57 56 74 100 82 71 95 97 100 100 100 100 99 100 100 66 42 35 30 21 20 18 16 15 9 4 2 3 3 2 2 2 2 4 4 5 4 4 4 7 7 8 9
100 100 39 16 38 59 81 66 87 100 100 100 100 100 100 97 100 91 62 45 39 38 28 27 24 19 17 18 14 8 4 3 3 3 2 2 3 4 6 6 6 6 6 6 7 10 14
27 100 96 22 22 45 77 87 96 100 100 100 100 100 100 100 99 64 49 45 42 38 33 36 29 23 23 23 18 13 8 5 4 4 3 3 4 5 5 7 9 8 7 8 10 7 11
34 48 100 49 27 43 98 86 96 98 100 100 100 100 100 100 77 56 50 48 44 42 40 42 34 29 30 31 24 23 13 10 8 6 4 4 4 6 8 6 6 8 8 8 10 12 11
44 28 51 87 47 58 80 84 98 100 100 100 100 100 100 94 74 57 51 51 48 47 46 45 41 38 44 40 34 26 20 19 13 11 9 7 6 6 7 8 10 8 7 8 11 16 13
52 32 34 95 75 74 76 86 84 100 100 100 100 100 100 90 77 60 54 52 52 51 50 50 47 44 50 48 42 40 28 27 25 22 20 14 12 10 7 8 9 11 11 11 10 12 17
72 45 30 70 93 92 94 66 100 100 100 100 100 100 100 93 80 65 56 53 54 53 53 55 51 48 51 52 55 46 44 39 40 32 36 27 23 18 18 13 9 10 10 11 12 13 19
75 62 44 31 76 100 99 78 92 100 100 100 100 100 100 99 92 76 61 56 55 52 52 54 51 53 53 49 54 56 64 56 53 50 46 44 38 37 29 27 21 17 12 10 11 11 14
80 38 33 33 30 73 100 87 79 100 96 100 100 100 100 100 100 93 74 59 56 55 53 51 52 54 55 50 51 49 56 66 60 70 58 51 44 42 39 41 40 34 29 25 20 13 11
93 75 38 38 28 29 91 100 81 94 94 100 100 100 100 100 100 100 94 71 60 56 54 52 49 53 54 56 54 56 52 52 54 56 59 65 64 54 48 43 44 47 48 45 50 43 28
91 97 72 33 37 30 38 88 98 93 82 90 100 100 100 100 100 100 100 90 71 60 55 54 52 56 58 54 56 55 51 52 50 50 48 56 58 63 66 60 58 51 50 51 52 50 56
100 77 50 30 41 31 27 55 100 100 90 91 91 100 100 100 100 100 100 100 91 70 61 56 54 58 59 62 60 57 55 58 51 54 51 49 50 52 55 54 58 67 70 61 60 57 63

GFSGBSN_250_rhum_123.txt.gz
RH
100 90 80 73 63 57 37 37 44 40 46 47 36 30 22 23 25 19 12 11 10 11 28 47 40 58 73 94 75 70 72 76 76 67 69 61 46 37 24 15 10 10 9 12 10 8 9
66 58 50 50 49 41 46 26 23 28 38 36 32 33 24 20 22 22 16 12 13 10 14 41 31 44 55 70 100 90 82 69 83 79 66 48 42 29 23 13 12 11 9 9 10 8 8
14 12 10 10 10 10 9 13 11 12 19 21 24 19 16 17 20 18 13 12 13 10 9 12 13 20 35 61 69 78 76 68 66 71 58 44 30 15 14 11 12 9 8 11 10 7 6
12 11 8 7 6 6 6 5 4 5 6 8 16 14 14 13 17 16 14 10 11 11 11 10 8 19 32 50 58 55 62 64 54 44 42 33 20 11 11 7 9 9 11 10 7 6 5
9 8 6 5 4 4 4 4 4 3 3 4 6 8 11 12 13 15 12 11 11 11 11 12 11 12 18 41 61 63 72 58 50 37 26 20 15 11 11 9 9 8 9 6 5 5 4
6 5 4 4 3 3 3 3 3 3 3 3 3 5 6 8 8 8 10 11 12 12 13 15 14 11 11 15 33 58 74 54 40 27 18 14 11 8 9 7 8 6 6 6 6 4 3
5 4 3 2 2 2 2 2 2 2 3 3 3 3 4 5 6 7 10 12 13 16 18 16 15 15 19 31 34 48 51 38 25 21 14 13 8 8 7 6 6 6 6 5 4 2 2
6 3 2 2 2 1 2 2 2 3 3 3 3 3 3 4 7 9 12 14 17 18 22 22 49 61 50 59 37 28 34 34 23 15 11 10 7 7 6 6 5 5 4 3 2 1 1
7 3 2 1 1 1 1 1 2 2 2 2 3 3 3 6 9 13 16 21 34 64 98 100 100 100 98 39 22 15 15 15 14 8 8 7 6 6 6 5 4 3 2 1 1 1 1
10 5 2 2 2 2 1 1 1 1 2 2 2 3 7 10 13 19 33 93 100 100 100 100 100 100 54 37 20 9 9 8 8 7 6 6 6 5 4 3 2 2 1 1 1 1 1
12 7 4 2 2 2 2 2 1 1 2 2 4 8 10 14 22 84 100 100 100 100 100 100 100 86 31 25 18 13 9 8 8 9 7 5 4 3 2 2 2 2 1 1 1 1 1
18 10 6 3 2 2 2 2 2 2 3 5 7 10 19 61 100 100 100 100 100 100 100 80 33 42 38 26 13 9 8 7 6 5 4 3 2 2 2 2 2 2 2 2 2 2 2
53 19 11 6 5 7 6 4 4 5 6 8 13 33 78 100 100 100 100 100 100 74 47 62 72 74 34 13 11 10 8 6 4 3 2 2 2 2 2 2 2 2 2 2 2 2 2
69 42 18 13 17 17 21 13 10 10 12 27 54 92 100 100 100 100 100 75 59 71 96 100 64 23 15 11 9 6 4 2 2 2 2 2 2 2 2 1 2 2 2 2 2 2 2
84 80 32 23 18 24 29 49 72 69 91 100 99 100 100 99 82 76 96 98 96 100 65 26 20 14 10 8 4 2 2 2 2 2 2 2 2 2 2 2 3 3 3 3 3 3 3
99 86 53 44 29 16 25 48 94 93 85 90 92 70 79 96 100 100 97 100 69 32 25 21 19 13 9 5 3 2 2 2 2 2 2 2 2 3 4 4 4 4 4 4 4 4 3
46 100 63 67 57 42 44 50 51 60 61 88 98 100 100 100 95 94 60 38 30 28 23 19 19 13 8 4 3 3 3 2 2 2 2 3 4 5 5 6 4 4 5 5 5 4 4
41 66 83 66 74 84 83 83 77 88 92 100 100 100 100 93 74 43 40 36 34 30 24 21 19 16 12 7 4 3 3 2 2 2 3 4 5 5 6 5 4 5 6 7 6 6 5
61 32 74 66 74 83 82 83 88 98 100 100 100 100 88 58 46 44 44 42 41 34 30 24 21 20 16 11 7 4 4 3 3 3 5 6 6 5 5 6 5 6 7 8 6 6 8
95 93 36 77 70 94 98 88 98 100 100 100 100 92 66 51 50 50 51 51 47 41 35 29 26 23 20 16 12 8 5 4 4 5 5 6 7 7 6 7 6 7 8 7 6 8 11
100 100 95 46 52 66 98 100 100 99 100 100 100 89 66 57 54 56 56 54 54 47 40 38 32 28 27 22 18 14 10 8 6 6 6 7 7 6 8 8 8 9 10 11 7 13 16
100 100 100 96 54 49 71 94 100 100 100 100 100 96 78 62 57 58 59 57 57 53 46 44 39 39 33 29 20 21 21 18 11 10 7 7 9 8 7 8 10 13 13 14 14 8 24
100 100 100 100 93 44 44 74 79 100 100 100 100 100 83 68 63 60 59 58 58 55 53 50 48 43 42 43 33 27 26 25 21 16 15 12 8 10 11 9 9 11 11 15 15 17 16
96 100 100 100 89 51 54 45 77 66 100 100 100 100 97 75 72 67 63 60 58 55 53 53 51 49 45 43 42 38 32 30 27 24 22 20 19 17 12 12 11 11 11 11 15 21 20
77 100 100 100 100 46 50 53 65 79 64 99 100 100 100 88 79 76 70 64 60 55 52 49 51 52 49 45 45 44 52 44 39 31 25 25 25 23 20 23 15 11 10 11 11 14 26
100 100 100 100 100 75 22 38 40 64 80 67 96 100 100 100 87 83 81 73 65 60 54 51 52 52 55 52 51 46 47 53 54 47 41 35 30 32 25 23 19 20 14 11 12 12 16
100 100 100 100 100 99 24 22 43 55 73 83 75 82 100 100 100 90 86 89 80 69 60 54 53 57 58 55 53 49 48 51 48 49 50 49 37 35 35 34 34 27 23 25 20 14 14
100 100 100 100 100 100 92 17 23 46 55 85 89 78 78 100 100 100 86 90 92 87 73 62 56 55 59 57 56 53 51 51 50 48 49 51 50 53 49 46 46 36 34 38 33 23 21
100 100 88 100 100 100 100 62 14 29 36 57 93 90 78 76 100 100 100 86 94 98 88 76 63 58 58 60 58 56 54 51 55 54 50 46 49 49 47 53 54 56 49 46 42 40 40

GFSGBSN_250_rhum_129.txt.gz
RH
36 24 10 5 3 2 2 3 4 5 6 10 12 24 29 22 17 21 22 26 18 17 12 11 11 13 28 38 52 44 65 61 65 89 76 78 75 60 67 59 53 53 48 44 40 27 23
29 24 6 3 2 2 2 2 2 3 4 7 11 13 24 33 32 22 23 22 25 19 14 11 11 11 9 10 19 18 30 30 39 43 53 58 53 57 62 63 52 49 55 47 42 32 20
17 11 5 2 2 2 1 2 2 3 4 5 8 11 13 34 44 36 18 20 24 19 13 14 12 12 10 8 8 8 8 11 13 18 32 43 36 49 47 44 48 44 43 43 41 24 19
15 9 5 2 2 1 1 1 2 2 3 4 6 8 12 22 27 27 22 27 13 17 21 15 13 14 10 12 10 11 9 7 7 8 10 14 19 19 26 34 31 31 27 26 32 16 16
19 10 6 2 2 1 1 1 2 2 2 3 4 6 8 11 20 32 22 21 20 13 11 12 13 13 13 16 14 12 10 9 10 8 6 6 6 10 15 17 20 17 16 17 18 12 8
40 18 7 4 2 2 2 1 2 1 2 2 3 4 7 11 13 14 16 13 18 20 19 16 19 21 25 19 11 10 10 11 10 8 6 5 5 5 5 7 10 9 8 8 9 11 5
84 32 10 7 4 2 2 2 2 2 2 3 3 4 6 10 12 11 16 24 39 40 37 32 35 35 26 15 13 12 10 8 8 6 5 4 4 3 3 4 4 6 7 6 6 6 5
96 74 46 21 8 3 2 2 3 3 3 4 4 6 10 15 20 22 19 16 17 22 32 37 27 15 12 10 9 8 7 6 6 6 5 4 4 4 4 4 4 5 6 5 5 4 4
70 100 75 57 24 8 4 3 3 3 3 4 6 8 10 11 12 12 11 10 12 15 17 17 15 12 10 10 8 7 6 6 5 5 4 4 4 4 4 4 4 4 4 4 4 4 4
75 79 100 97 56 34 13 8 8 6 5 6 8 9 11 14 16 18 18 17 19 26 32 26 21 25 19 17 12 10 8 7 7 5 5 5 4 4 4 4 4 4 4 4 4 4 3
71 64 80 98 100 92 45 32 22 18 18 19 22 28 31 40 51 54 57 54 48 43 32 24 19 18 14 16 17 14 15 14 12 11 10 7 7 8 7 6 6 6 5 4 3 3 3
63 59 62 62 100 96 92 68 62 60 58 56 51 55 56 51 60 66 59 49 40 31 24 20 15 13 10 9 8 6 7 8 8 7 7 7 6 6 6 6 5 4 5 5 4 4 3
47 50 50 52 65 80 97 72 55 49 41 45 51 36 38 39 40 39 36 35 33 26 20 15 9 7 6 6 5 5 4 4 4 4 4 4 4 4 4 4 4 3 3 2 2 2 2
82 67 47 55 48 50 71 93 71 51 48 42 36 36 37 38 37 36 35 35 31 27 17 11 6 5 4 3 3 3 3 3 3 3 3 3 3 3 3 3 2 2 2 2 2 2 2
100 98 86 57 48 52 48 64 80 85 58 51 48 43 38 38 39 39 37 32 30 23 17 12 7 4 3 3 3 3 3 3 2 2 2 2 2 2 2 2 2 2 2 2 2 2 2
100 100 100 83 70 42 49 60 77 76 86 68 58 54 49 43 41 41 35 37 32 24 21 15 11 6 4 3 3 3 3 2 2 2 2 2 2 2 3 3 3 4 4 4 4 4 4
98 100 100 100 100 84 64 48 58 69 80 76 76 65 57 51 48 43 40 37 35 28 27 22 18 11 7 4 4 4 4 4 4 4 5 5 5 4 6 6 6 6 5 5 5 5 5
97 100 100 100 100 100 94 70 42 52 59 90 66 79 72 59 53 49 45 42 39 34 32 30 26 21 16 11 6 5 6 6 6 6 6 6 6 7 7 7 8 7 6 5 6 5 5
99 100 100 100 100 100 100 100 89 54 48 60 67 78 71 84 70 58 50 46 44 41 38 33 33 28 26 21 15 11 8 8 8 7 6 6 6 6 7 7 8 8 7 5 6 7 7
84 73 96 100 100 100 100 100 100 95 64 46 64 61 90 71 82 80 62 51 48 50 42 44 39 33 31 32 26 18 11 9 8 7 7 8 8 8 8 9 9 9 9 7 8 16 16
68 70 79 85 100 100 100 100 96 98 91 68 49 58 62 70 83 76 81 64 54 54 52 45 46 41 40 32 30 29 25 18 12 9 8 8 9 11 11 11 11 10 9 8 12 21 49
30 64 55 68 100 92 100 100 96 69 56 91 49 55 57 65 63 84 72 83 69 61 57 54 48 46 47 43 36 36 34 30 23 15 10 10 10 13 13 16 16 18 15 11 15 23 35
36 31 53 62 89 95 100 100 100 84 60 47 64 40 44 60 66 64 85 71 84 73 64 62 57 50 46 49 46 40 36 32 28 26 23 13 11 15 17 15 33 36 34 22 40 38 49
31 29 36 46 77 84 97 100 100 93 60 31 38 44 39 45 64 65 64 85 71 86 78 71 65 58 52 48 50 49 46 40 35 32 30 25 16 14 23 17 20 37 50 47 48 56 48
46 31 27 41 52 76 100 100 100 100 85 36 23 34 27 33 50 64 66 66 86 71 86 87 77 67 61 55 51 51 52 50 47 41 39 31 28 19 20 28 23 22 47 60 71 74 71
58 39 35 33 47 66 86 97 100 100 86 35 24 21 21 20 28 53 67 68 68 89 73 87 88 85 76 73 68 62 55 53 54 49 44 39 32 31 24 23 27 20 41 51 78 67 73
46 51 42 45 34 52 81 87 100 100 90 69 39 17 13 15 17 25 67 81 66 69 87 73 87 92 94 96 92 81 70 63 58 58 52 44 41 36 35 31 24 31 37 51 94 84 80
58 52 51 46 44 47 75 86 98 100 100 99 42 23 15 12 11 16 29 71 83 65 69 88 76 84 92 100 100 97 86 79 75 64 60 58 49 44 35 38 46 45 42 49 63 88 92
69 63 63 38 53 62 59 93 100 100 100 100 80 45 37 15 10 10 16 44 81 79 70 74 90 77 85 90 96 99 95 92 86 80 70 63 63 56 52 46 40 36 39 53 58 81 89

GFSGBSN_250_rhum_135.txt.gz
RH
33 18 4 3 2 2 1 1 1 1 2 2 3 4 6 11 15 12 8 15 14 21 20 20 53 71 63 76 81 86 88 97 92 79 78 78 70 63 59 54 50 52 48 48 44 40 39
38 31 12 5 3 2 2 2 2 2 2 2 2 3 5 8 12 11 9 11 17 19 19 21 16 17 35 63 70 74 77 77 80 76 77 73 81 86 72 65 58 55 51 48 48 49 37
52 37 33 9 4 3 2 2 2 2 2 2 2 3 5 8 10 9 9 8 9 13 20 22 25 19 15 13 26 52 59 60 72 80 67 63 65 63 64 66 70 60 58 52 45 42 38
60 43 35 32 8 6 5 3 3 3 3 3 2 3 5 6 7 8 8 8 9 17 25 31 27 18 18 17 16 14 14 15 23 57 69 68 73 64 54 49 45 39 36 42 41 34 33
47 50 41 36 30 14 8 6 4 4 6 6 7 7 8 9 9 10 15 19 26 27 29 30 32 27 27 24 22 19 20 18 15 14 13 21 37 51 74 65 48 43 36 28 30 26 18
38 40 46 39 36 29 25 15 8 6 7 9 10 12 20 25 24 22 21 26 30 36 38 36 34 34 29 26 25 23 23 17 14 13 13 12 10 9 11 11 14 22 26 21 19 18 10
48 36 38 40 43 40 38 26 24 27 26 26 31 34 36 38 40 43 40 36 19 19 21 23 27 31 34 35 35 29 24 18 12 11 12 11 8 8 7 7 7 7 7 8 8 8 7
80 48 32 35 36 45 43 44 40 33 33 36 37 36 36 39 39 33 28 22 20 21 16 10 9 10 11 10 10 10 9 9 8 7 8 8 8 7 7 7 7 6 6 4 5 4 4
76 55 45 25 37 33 42 48 43 43 45 45 43 40 38 36 33 31 25 19 12 10 14 16 14 9 8 8 7 5 5 5 5 5 5 5 5 5 5 5 5 5 4 4 4 3 3
100 81 37 39 24 32 36 36 51 51 46 48 48 47 44 41 36 31 29 24 16 9 7 6 8 11 11 10 10 8 6 7 7 7 6 6 5 6 6 5 5 5 4 4 4 4 3
82 100 100 33 31 29 24 38 38 41 52 50 47 49 46 46 45 40 35 31 22 12 6 5 5 5 5 7 8 10 11 11 9 8 7 6 6 5 6 5 5 5 5 4 4 4 3
63 83 88 84 35 23 25 24 32 40 42 41 46 46 50 50 46 48 48 38 26 21 11 6 5 4 4 4 4 4 7 9 10 10 11 11 8 9 7 6 5 4 4 3 3 3 3
40 52 93 83 65 50 31 22 23 22 35 38 44 46 51 57 53 47 43 42 35 24 15 8 6 5 4 4 3 3 3 4 5 7 9 10 11 11 11 10 9 10 8 8 8 7 7
41 38 47 66 84 86 78 47 30 21 18 28 35 38 41 40 46 50 48 40 40 30 20 14 7 6 7 6 5 3 3 3 3 3 4 4 5 5 6 6 6 6 5 5 4 4 3
64 49 39 52 51 86 92 80 40 27 19 16 16 33 36 43 44 47 43 46 38 36 32 21 15 8 6 6 6 5 4 3 3 2 2 2 3 3 3 3 3 3 3 3 3 3 3
65 54 46 38 59 53 70 66 64 79 81 58 33 18 30 41 48 44 46 40 43 37 32 37 22 17 9 6 6 6 6 5 5 5 5 5 5 5 5 5 5 5 6 8 8 6 6
53 47 51 34 33 41 76 60 62 84 88 79 57 41 24 18 37 44 42 45 41 42 37 35 39 29 25 16 10 7 7 7 6 6 7 7 7 7 8 8 8 9 11 11 9 11 9
72 53 53 45 43 37 37 52 87 66 78 79 63 36 29 24 16 32 40 39 43 45 47 42 38 42 39 34 22 16 11 10 9 9 8 8 7 8 8 13 17 19 21 21 15 17 19
100 58 52 56 43 39 32 39 52 62 80 93 82 55 21 13 17 17 26 47 44 45 46 52 48 41 48 49 34 28 21 16 14 12 12 11 11 12 15 24 32 37 40 37 28 29 52
95 91 61 54 51 46 41 37 39 59 63 80 82 79 76 65 15 13 15 19 47 50 46 46 53 51 44 54 48 34 31 24 21 21 16 16 14 19 35 48 39 41 43 66 51 62 87
51 97 78 56 61 50 51 46 44 42 43 58 60 70 88 82 75 46 13 13 19 44 51 51 50 56 52 44 51 47 41 34 29 24 22 23 24 34 46 47 48 49 55 77 72 92 94
40 62 100 68 66 61 56 50 53 47 44 45 53 50 60 92 80 73 67 16 13 19 45 50 54 52 61 54 46 50 48 44 34 31 24 27 36 61 53 75 71 39 88 98 98 95 100
50 50 98 90 68 57 59 51 57 57 54 44 47 56 54 56 69 85 83 75 15 16 24 48 49 58 59 60 56 50 52 50 42 36 32 24 33 58 61 90 61 76 95 100 100 100 100
41 56 47 90 70 62 64 56 52 53 59 52 54 57 61 53 58 71 84 85 70 14 14 27 59 50 57 62 71 59 54 50 47 42 33 36 35 74 66 78 66 73 74 89 100 100 100
32 55 41 86 96 66 74 68 70 58 65 58 54 58 63 65 57 69 70 77 80 56 13 13 23 64 54 56 65 78 66 59 50 49 38 35 42 53 70 75 58 55 77 83 88 100 100
33 40 35 62 71 62 64 80 71 58 58 54 45 53 66 79 70 71 80 71 74 80 70 17 12 20 69 66 60 58 69 66 61 50 52 36 38 42 80 72 69 53 65 67 70 82 95
36 48 51 66 55 70 89 98 82 62 52 50 36 40 51 74 72 81 77 88 88 72 86 71 14 14 25 72 76 68 62 72 65 62 51 50 35 29 60 72 78 78 71 73 92 70 77
63 82 70 63 56 76 98 100 92 76 62 56 39 33 41 76 63 60 82 82 93 86 89 88 58 14 12 29 77 87 70 69 76 66 61 56 52 42 39 58 79 93 93 91 86 90 83
70 98 98 94 68 77 88 100 92 86 78 72 52 36 41 63 54 49 75 84 95 92 84 80 90 36 14 12 36 77 86 76 76 80 68 72 69 67 47 47 45 59 83 96 100 97 90